WOW 板


LINE

看板 WOW  RSS
新的一年,新年快樂! 今晚誰還在家出團的啊! 祝各位都開到泰坦造物、帶洞還外加第三屬性的神裝... 底下開始閒聊 :D --
QR Code



※ 發信站: 批踢踢實業坊(ptt.cc), 來自: 114.25.3.94
※ 文章網址: https://webptt.com/m.aspx?n=bbs/WOW/M.1546272319.A.0FB.html
1F:推 reaturn: 希望今年也是BZ幹話滿滿的一年 01/01 00:06


2F:推 jsai: 新年快樂~~~ 01/01 00:10
3F:推 luis0624: 新年快樂~ 01/01 00:11
4F:→ secundus: 島 01/01 00:13
5F:推 Golbeza: 定 01/01 00:16
6F:→ ZaireWade3: 島 01/01 00:16
7F:推 hunman360: 島 01/01 00:21
8F:推 Wind781013: 新年新保底給個外觀吧! 01/01 00:26
9F:推 aegius1r: 新年快樂~ 01/01 00:56
10F:推 hmt17: https://i.imgur.com/56RHkjb.jpg 新年快樂 奧格瑪發大財 01/01 01:13
11F:→ mantou1991: 新年塊肉 01/01 01:22
12F:推 tairaPP: 推樓樓上對話框,張阿諾至今仍逍遙法外== 01/01 01:28
13F:推 zoidsx: 新年不知道有沒有泰坦禮物 01/01 01:46
14F:推 redmib: 新年快樂 今年沒在wow跨年 爽 01/01 04:00
15F:推 lukelin15: 跨年大夜幫推 魔獸再戰20年 01/01 04:52
16F:推 jiaxie: 今年一定島! 01/01 06:49
17F:推 DEVIN929: 希望可以跟韓國併服 不然戰場都等好久 =.= 01/01 07:27
18F:推 jeff45: 新年快樂呀 希望下星期職業平衡能再調整一下 01/01 09:27
19F:推 Liberty0816: https://i.imgur.com/Pnn5rp3.jpg 新年快樂 01/01 11:20
20F:推 enchyi: 今年一定 01/01 12:47
21F:噓 ihateants: BZ可以再爛一點啊 LAG到死亡可以被小怪再打死 這三小 01/01 16:47
22F:噓 phoinixa: LAG到炸 01/01 17:33
23F:噓 phoinixa: 馬鈴薯伺服器真棒 還有一堆智障PVP咖罵人不幫打 01/01 17:51
24F:→ phoinixa: 技能按下去20秒後才放出去這能打是不是 有病吧 01/01 17:52


25F:→ azurewrath00: 佐司瓦入侵lag到炸了,官方都不管了嗎 01/01 20:22
26F:→ henry1234562: 剛才在PVP感覺還好阿 01/01 20:42
27F:→ henry1234562: 從七點打到現在都沒啥感覺 01/01 20:43
28F:→ henry1234562: 一被懸賞就要吃火車 這年頭剋星很難當 01/01 20:43
29F:→ phoinixa: PVP 入侵剛開始那段時間綜合頻道都在罵 卡成狗 01/01 20:46
30F:→ henry1234562: 剛開始人太多很卡吧 01/01 20:48
31F:推 Oxhorn: 碼的 現在還是卡 卡成這樣是想做什麼PVP啦 01/01 23:16
32F:→ henry1234562: 不過今天聯盟特使很方便 解衝突戰能同時解兩區特使 01/02 00:00
33F:→ henry1234562: 衝突戰同時算該地區 也算第七軍團 01/02 00:00
34F:→ Golbeza: 今天聯盟解衝突戰可以同時解第七軍團+佐斯瓦 01/02 00:07
35F:推 cat05joy: 昨晚入侵後半段聽說很LAG 還好我剛初沒多久就解掉 01/02 11:33
36F:推 kimula01: 請問有人知道這是什麼UI https://imgur.com/cWW91Fh.jpg 01/03 13:35
37F:→ kimula01: 我以為是ELV裡面的功能 可看很多實況沒用ELVUI也有這UI 01/03 13:36
38F:推 corpserun: WA 01/03 14:08
39F:→ phoinixa: weakauras google就可以找到一堆 有專門的網站 01/03 14:27
40F:推 DEVIN929: 平常開pvp 接近衝突戰的時間就轉pve 感覺比較容易避lag 01/03 14:32
41F:推 aegius1r: @kimula01 https://wago.io/Afenar_Druid 01/03 14:44
42F:→ kimula01: 感謝 來是找找看 感恩 01/03 16:33
43F:推 henry1234562: 但我開PVP就是要在衝突戰殺人阿XD 01/03 19:53
44F:→ d95272372: PVP谷地好LAG ZZZZ 01/05 00:21
45F:推 henry1234562: 解任務的時候還好 要交特使的時候卡到炸 01/05 01:06
46F:→ henry1234562: 卡到我直接切出PVP 還重上一次才能動.. 01/05 01:06
47F:推 orz65535: 阿拉西小怪是不是在實驗M+的新詞綴R 01/05 01:35
48F:推 MiCy: 陳宜庭我愛你啊! 01/05 09:19
49F:→ axiall: 殺小 阿拉吸小怪有詞綴? 01/05 09:25


50F:→ snowanimal: 有唷~這兩天都有 01/05 11:01
51F:推 KBryant0824: 終於刷到第一隻海島坐騎 01/05 19:16
52F:推 sarevork: 周末的衝突戰... 01/05 21:17
53F:推 henry1234562: 就是真正的衝突戰 01/05 21:29
54F:→ henry1234562: 看是跟對面陣營衝突 還是跟伺服器衝突 01/05 21:29
55F:推 Golbeza: 又有一台伺服器回到水裡了! 01/05 21:54
56F:→ kimula01: 請問elvui本來血條有平滑的效果 但是我抓新版本後這功 01/06 08:52
57F:→ kimula01: 能預設是關掉的 請問要在elvui的設定裡面的那邊打看呢 01/06 08:52
58F:→ kimula01: ? 01/06 08:52
59F:噓 s511320: 幹超LAG 01/06 20:22
60F:→ patvessel: 最近練分身有些發現有些等級限制110的158綠裝,110的人 01/06 20:55
61F:→ patvessel: 物卻不能穿 跳出“等級120才能使用這件物品 ”之類的訊 01/06 20:55
62F:→ patvessel: 息、這是正常情況嗎 01/06 20:55
63F:噓 Golbeza: 暗語眾 驚恐的科多獸 03:54 已取得 01/07 03:56
64F:→ fun9891: 請問日屠部落有聊天頻道嗎? 01/07 17:16
65F:推 ChenDao: 會飛的科多獸 01/07 17:32
66F:→ Golbeza: http://i.imgur.com/ry6wvSp.jpg 01/08 02:42
67F:推 baliallin: 鍛造2星圖樣得用榮譽獎章換 不玩PVP的全三星無望了嗎? 01/09 01:20
68F:→ d95272372: 對 就跟上版的肩甲還哪邊一樣 圖靠打戰場給 01/09 01:23
69F:噓 HeyYoYo: 指揮官的戰爭迷戒 竟然要讀秒了= = 01/09 06:10
70F:推 aegius1r: ..居然改這個 QQ 01/09 08:09
71F:推 sarevork: 8.1.5PTR開了 01/09 09:07
72F:推 Wind781013: 1/10 風暴邪淵測試,希望是個好玩的團本 01/09 11:02
73F:推 cat05joy: 月中不是要上了嗎 10號才測(?) 01/09 16:50
74F:推 Golbeza: 等玩家付費幫測 01/09 17:16


75F:推 aegius1r: 月中是上圍攻祖達薩啦 風暴邪淵還很久 QQ 01/09 18:29
76F:→ ChaosM: 請問五環裝是改版之後新掉落的裝都有,還是有侷限在部份 01/09 20:55
77F:→ spirit761127: 8.1.5後出的神甲都是五環 01/09 21:14
78F:推 Oxhorn: 放個招都要0.5秒才會出來... 01/09 23:53
79F:→ Oxhorn: 怎麼每天晚上都這樣 01/09 23:53
80F:→ mealoop: 大概看了一下劇情 更多的屎 做好準備 01/10 02:05
81F:推 windtemple: 保底箱壞掉啦 01/10 08:16
82F:→ ekrik: ......板標祖薩達是不是寫反了啊? 01/10 09:19
83F:→ axiall: -.- pvp lag 轉了pve還是lag 01/10 10:31
84F:推 funk6478: 板標寫反了 01/10 11:17
85F:推 ChenDao: 我改了 請問這樣 寫對了嗎? 01/10 22:32
86F:→ Golbeza: 板主有在玩嗎 01/10 22:35
87F:推 Wind781013: 版主雲玩家嗎(X 01/10 22:54
88F:推 mukuro: 這伺服器狀態太誇張了...整個卡在那邊幾十秒...動一下再卡 01/10 23:22
89F:→ mukuro: 幾十秒......難怪股價狂跌 01/10 23:22
90F:推 ChenDao: 好好好 我再改 01/10 23:39
91F:推 ChenDao: 這樣呢? 01/10 23:39
92F:→ phoinixa: 現在車隊帶10層行情多少阿 懶得慢慢收裝了 01/11 00:50
93F:→ jiaxie: 一盆發光的河豚,真是好玩具啊! 01/11 01:02
94F:→ hisashiaska: 脫戰大鍋被改弱了 01/11 10:26
95F:推 lukelin15: 請問可以一次可以買多件商店物品的UI叫什麼... 01/11 15:17
96F:→ jiaxie: 按住SHIFT 01/11 15:25
98F:→ Golbeza: BuyEmAll 01/11 16:05
99F:推 aegius1r: ..倫卡鍋子CD變成兩小時惹 QQ 01/11 20:03


100F:推 yili1984: 黑海岸用補天賦打血多的稀有沒補路人血,被罵低能;密語 01/11 23:42
101F:→ yili1984: 他說不要覺得路人補有補血義務之後忽略他。竟然被換隻密 01/11 23:43
102F:→ yili1984: 語說髒話耶。這世界真是太神秘了。 01/11 23:43
103F:推 henry1234562: 遇到不知卡了啥bug 護盾跟回血都無限多的術士 01/12 01:32
104F:→ henry1234562: 只是還是被人海淹死了好幾次 01/12 01:32
105F:推 mouse210: 剛回鍋 看到這次劇情離開了一開始到現在的部落轉到暗語 01/12 03:03
106F:→ mouse210: 眾聯盟,有沒有公會可以收留的~ 01/12 03:03
107F:推 gp671112: 懲戒審判會回好幾豆的是哪個天賦還被動呀0.0? 01/12 08:59
108F:→ henry1234562: PVP天賦 審判打同個目標第二次給三豆 01/12 10:27
109F:推 gp671112: 原來!! 難怪一直找不到!! 謝!! 01/12 10:55
110F:→ whiwhiwhi: 嗯? 怎又一個點了PVP天賦不知道效果的 01/12 12:41
111F:→ whiwhiwhi: 那不是自己選3個嗎.. 01/12 12:41
112F:推 DEVIN929: 讚達拉再生nerf第一步:傷害中斷 接下來要變10%了嗎? 01/12 12:43
113F:→ phoinixa: 報個M+ 兩個機掰坦補組人之後一聲不響離隊 01/12 16:39
114F:推 hisashiaska: 入侵解完2個任務才接到大任務 這樣還有救嗎... 01/13 14:38
115F:→ hisashiaska: GM說沒救了QQ 01/13 16:12
116F:推 lukelin15: 感謝g大 01/13 16:13
117F:推 miketk: 請問第七軍團徽章 除了阿拉西黑海岸任務及衝突外 還有 01/13 16:40
118F:→ miketk: 什麼可拿? 謝謝 01/13 16:40
119F:→ jiaxie: 軍團聲望袋每次開20個 01/13 16:44
120F:推 miketk: 軍團聲望袋 是指崇拜後再積一萬給的那個嗎? 01/13 17:12
121F:→ jiaxie: 是啊,安官桌有軍團聲望任務可以優先解。贊達拉WQ都解 01/13 17:13
122F:推 miketk: 瞭解 感謝!! 01/13 17:14
123F:推 Wind781013: 軍七聲望變超好農的.... 01/13 19:11
124F:推 henry1234562: 軍七現在一個衝突戰 防守500 進攻1000 01/13 19:32


125F:→ henry1234562: 這還不算解WQ時給的.. 01/13 19:32
126F:推 orz65535: 入侵大任務自動接受我就不理了 畢竟都自動接受了 01/13 22:40
127F:→ orz65535: 你按不按接受都已經在進行了 01/13 22:41
128F:推 cat05joy: 衝突5 黑海阿拉防守每日各5 第七軍團聲望箱子20 01/14 11:34
129F:→ orz65535: 前線也有詞綴了 這場是易爆 01/14 15:28
130F:推 jiaxie: 有人「血潤盛宴」三星圖樣,吃掉之後還是二星嗎QQ 01/14 19:02
131F:→ jiaxie: 第一次托爾托袋子,明明拿到玩具和血潤三星食譜,當場吃 01/14 19:02
132F:→ jiaxie: 結果現在看技能,血潤盛宴只有二星! 01/14 19:03
133F:→ fishnet: 會不會拿到的是血腸而不是盛宴阿 01/14 19:31
134F:→ jiaxie: 是這樣嗎@@?晚點換角色看看 01/14 20:59
135F:推 alyh: M10幽腐香菇王 不開無敵直接吃香菇 很棒(補到眼神死) 01/14 23:56
136F:推 Wind781013: 我是隊友看著我冰法表示香菇沒震光交給你了..... 01/15 00:15
137F:→ phoinixa: 為什麼總是有人預組選X副本結果進組之後說是打Y副本 01/15 13:48
138F:→ phoinixa: 標題寫對這種事都有障礙嗎 01/15 13:48
139F:→ d95272372: 對那些人來說有吧 01/15 14:02
140F:→ phoinixa: 這種人不是手殘腦殘就是懶 01/15 17:43
141F:推 DEVIN929: 藍帖補充了s2開始 特使跟衝突戰獎勵裝備將看專精非職業 01/16 09:59
142F:→ DEVIN929: 另外分解非本職神甲將不在得到泰坦殘質 01/16 10:02
143F:推 DEVIN929: 想農全團神甲拆殘質 那就全組同甲去玩吧 01/16 10:06
144F:推 orz65535: 說到武器箱 DH最爽 永遠都是能用的 PAL最慘 一天賦一把 01/16 13:01
145F:→ orz65535: 布甲也不錯爽 就壞在有魔杖 01/16 13:07
146F:→ Mohism: 請問現在普通薩墓 370 DH或聖騎能單刷了嗎? 01/16 14:04
147F:→ fishnet: 這麼說武僧也跟PAL一樣 三種專精的武器類型不重複 01/16 14:13
148F:→ snowanimal: 本周黑海岸的雙手法杖屬性漂亮,造型很可以 01/16 14:59
149F:→ henry1234562: 聖騎好歹坦補都能拿盾.. 01/16 21:42


150F:→ henry1234562: 武僧三專精沒有任何一把武器能共用 01/16 21:42
151F:→ orz65535: 對懲戒來說那個盾只是分母+1阿 01/16 22:04
152F:→ henry1234562: 最機車的是 武僧補還雙手跟主副手都能帶 01/16 23:21
153F:→ henry1234562: 坦克基本所有雙手都能拿 分母有多大你知道嗎 01/16 23:21
154F:推 Foreveryears: 請問托爾托追尋者解完獎勵的特使在哪0.0? 01/17 11:13
155F:推 cat05joy: 雖然複合職很難抽 衝突阿拉黑海武器 可是我都抽滿了.... 01/17 11:44
156F:→ phoinixa: 很缺武器 武器箱還開到沒屁用的副手ZZZ 01/17 12:03
157F:推 gomany437: 托爾拖在斯陀谷地左上海邊 01/17 12:42
158F:推 wakai: 開始想要打PVP 沒朋友是不是只能打練習戰啊 01/17 13:37
159F:→ jiaxie: 今天有更新檔74.33MB!! 01/17 17:12
160F:→ kimula01: 回鍋玩家問一下..M+的寶底箱 在哪邊開 找不到 QQ 01/17 19:04
161F:→ henry1234562: 聯盟在辦公室 01/17 19:15
162F:→ kimula01: 那請問一下 小弟是部落的 不知道是在哪裡 感謝 01/17 19:25
163F:→ dxassin: 進大封印 右手邊第一個房間 01/17 19:34
164F:→ kimula01: 感謝你 01/17 19:41
165F:→ DarkPaladin: 今天海岸WQ只有4個? 01/17 21:33
166F:→ hisashiaska: 5個 01/17 21:38
167F:→ cpcexe: 生存獵手榴彈打火爆球是不是改掉了? 01/17 23:26
168F:→ asdxdew: 入侵/阿拉希/黑海岸wq都不算週任,爆雪要不要改啊 01/18 12:02
169F:推 q5967780: 想問一下有公佈8.1.5的改版日期了嗎 01/18 14:15
170F:→ mealoop: 沒有 01/18 14:45
171F:推 amsmsk: 珍娜真的庫爾提拉斯人嗎? 體型差太多惹 01/18 23:07
172F:推 orz65535: 希望到時候庫人有個NPC的靠牆動作 01/19 00:07
173F:推 Wind781013: 檢討吃虧的一方,真的很棒。 01/19 10:19
174F:推 wdcr: 為什麼這個機制不早10年出來... 01/19 13:52


175F:→ wdcr: (顯示為戰歌聯盟) 01/19 14:00
176F:→ phoinixa: 根本邏輯死去 當笑話看就好 01/19 15:42
177F:推 phbz: 魔草現在還有用嗎 還是看到蠻多人在收的 01/19 19:03
178F:→ henry1234562: 一個是 可以做靜心 一個可以搓不少個 01/19 19:51
179F:→ henry1234562: 另一個是 8.15銘文有一個配方要魔草 01/19 19:52
180F:→ henry1234562: 效果是啥不知道就是.. 01/19 19:52
181F:推 orz65535: 魔草直到現在用量一直都很大喔 高階雕紋一樣要7版原料 01/20 00:30
182F:→ kimula01: 請問8版 部落方 換硬幣骰裝的NPC在哪裡呢 回鍋不清楚 01/20 14:12
183F:推 aegius1r: 在大市集那邊 跟烏龜人同一階 那旁邊有繃帶人的店 01/20 15:34
184F:→ dxassin: 找警衛問塑型師 在那一間裡面 01/20 16:06
185F:推 orz65535: 聯盟表示 就在旅店旁邊 很難找嗎 01/20 17:44
186F:噓 IcJack: 到底甚麼鬼伺服器? 舊世界飛 還可以在空中停住 這樣敢收錢 01/21 13:07
187F:推 KBryant0824: 任務線開了~不過副本周四才開 01/22 11:32
188F:推 isomor: 征服點數進度條滿了現在不交禮拜四會歸零嗎? 01/22 13:55
189F:推 tjcohya: 請問這週只要打M6以上下週都是拿m6獎勵嗎?差在拿的鑰匙 01/22 17:41
190F:→ tjcohya: 層數而已? 01/22 17:41
191F:推 david106: 這周四之前一樣是最高10層拿380裝備 01/22 17:45
192F:→ david106: 是1/24-1/30 這七天鎖M+通關獎勵最高到M6 385裝備 01/22 17:46
193F:推 aegius1r: 解完短兵相接居然只有神兵獎勵 01/22 18:34
194F:推 Wind781013: 部落的陣營任務有BUG = = 01/22 19:18
195F:→ henry1234562: 目前已知 商人只賣385+的特質裝 01/22 23:12
196F:推 henry1234562: 然後 時光週任好像是給400團本裝 01/22 23:14
197F:→ mealoop: 時光周是給普通箱子 普通是400喔? 01/23 01:22
198F:→ mealoop: https://youtu.be/LC_NPKQdMIQ 新片片 01/23 01:27
199F:→ mealoop: https://youtu.be/rmoUJ2N9HOQ 01/23 01:28
200F:推 henry1234562: 果然 神王後面滿地都是東西要躲 01/23 01:39
201F:→ mealoop: 看了一下twitch 人最多那台的有出機器人 01/23 02:06
202F:→ mealoop: 進度最快的好像是在議會前惹 01/23 02:06
203F:→ mealoop: 外卡滅了幾次H地精王惹 看來團康真的難 01/23 02:19
204F:→ mealoop: 普通團還沒過議會 外卡已經到議會惹@@ 01/23 03:14
205F:→ mealoop: 看了一下官推原來議會有問題 繼續DEBUG 01/23 03:27
206F:→ d95272372: 喔 總算有實況要打H珍那了 01/23 04:19
207F:噓 Golbeza: 庫爾提拉斯/贊達拉要等8.15開放 BZzz 01/23 08:38
208F:推 DEVIN929: 新種族本來就說沒在這波更新裡了吧 01/23 09:35
209F:→ Golbeza: 原本就知道不過看到wowhead又特地提醒 悲憤一下 01/23 09:42
210F:→ Friis: https://i.imgur.com/VGP5wVP.jpg 01/23 11:40
211F:→ Friis: H已經被破關了 01/23 11:40
212F:推 henry1234562: 跟的狀況 後三王難度相當高 01/23 12:41
213F:→ cat05joy: 這次METHOD還會全程實況拓荒嗎 01/23 13:17
214F:→ asdxdew: 沒吧 01/23 14:54
215F:→ mealoop: https://twitter.com/methodgg 會實況ㄛ 01/23 15:06
216F:推 d6102003: 什麼狗幹爛特使啊 資源資源點數 01/24 07:47
217F:推 d6102003: 超多事要做= = 打時光打海島打人打一輪M0 01/24 07:59
218F:推 isomor: 真 8.1 01/24 08:09
219F:推 Rivendare: XDDDDDD 資料片主打種族到現在還不能玩 01/24 09:30
220F:→ Rivendare: 笑死人 01/24 09:30
221F:推 cat05joy: 開新種族才會變真8.1 現在是7.6(?) 01/24 10:59
222F:推 Golbeza: 7.5.5 01/24 11:36
223F:推 Golbeza: 有人知道MoP時光漫遊寶箱裝等多少嗎 01/24 13:37
224F:→ mealoop: 給普通箱應該是385吧 01/24 13:41
225F:推 s511320: 我開到泰坦造物415(舔 01/24 15:29
226F:推 Wind781013: 新戰場波港開打 01/24 15:49
227F:推 windwalker: 有人現在這時間點也是51900309無法登入嗎 01/24 16:28
228F:推 c8162981: +1 01/24 16:28
229F:推 momomasun: 說所有伺服器無法登入 01/24 16:29
230F:推 cookieyue: +1 01/24 16:30
231F:→ summer17299: +1 01/24 16:31
232F:推 c8162981: 進了 01/24 16:32
233F:→ mealoop: 前夕看到版上說黑海岸打很兇才包月 結果沒跟到 01/24 16:42
234F:→ mealoop: 現在真的很亂嗎[email protected]@ 01/24 16:42
235F:→ cat05joy: 預期三天內回歸原本狀態 01/24 17:55
236F:推 isomor: 衝突戰的獎勵不是說也會提升到385嗎?怎麼還是370 01/24 18:45
237F:→ henry1234562: 恩..嚴格來說 並沒有說衝突戰的會提升 01/24 19:06
238F:→ henry1234562: 因為只有說 特使的會... 所以也是沒說錯 01/24 19:07
239F:推 isomor: 我在wowhead上看的@@ 01/24 19:13
240F:→ isomor: World Quests rewards from Emissaries and Assaults will 01/24 19:13
241F:→ isomor: scale up to Item Level 385. 01/24 19:13
242F:推 Wind781013: 聯盟其實可以趁這時候開PVP練分身感覺很賺 01/24 21:58
243F:推 anadabaga: PVE部落角平常解WQ都沒啥人解很慢,今天人多很快搞定 XD 01/24 22:22
244F:推 deadlyearth: LAG到在大封印發呆 01/25 00:25
245F:推 rimi7609: 剛奧格瑪有人在喊說自己是聯盟使者,敬請部落開pvp要解 01/25 09:47
246F:→ rimi7609: 解任,那是反串嗎? 第一反應看到覺得干我屁事,只有我 01/25 09:48
247F:→ rimi7609: 這樣想嗎|||||? 01/25 09:48
248F:→ rimi7609: 普通會互相體諒讓對方解任的嗎??? 不會覺得喊得有病嗎? 01/25 09:48
249F:→ et310: 爆雪搞個400裝等就可以讓玩家轉移焦點互仇陣營 不愧專業的 01/25 11:17
250F:推 sarevork: 靠 衝突戰最後的船BUG上不去 01/25 12:45
251F:→ meishan31: 老玩家回鍋發現聯盟開PVP部落開PVE搞不好會錯亂 01/25 17:26
252F:推 ko007x: 怎麼登不進阿?? 01/25 17:50
253F:推 Dolphtw: 請各位大大幫我觀落陰 伺服器是不是承受不了太多玩家打pv 01/25 20:38
254F:→ Dolphtw: p 01/25 20:38
255F:→ mealoop: 看起來77天循環要回來惹 ptr對話直接提77cycle 01/25 20:41
256F:推 diefish5566: 新詞綴好爽喔 AE A起來 01/25 21:39
257F:推 zack2: 屍爆是不是改痛了?一秒4%我有沒有看錯?? 01/25 21:59
258F:推 diefish5566: 屍爆超痛啊 阿塔小龍之類的血量有夠刺激 01/25 22:09
259F:→ yuusan: 裝等世界 戰場看到36萬血熊坦拿旗 怎麼打... 01/25 22:58
260F:推 rockmanalpha: BZ就愛自打嘴巴 7版說PVP引入裝備模板避免裝等壓制 01/25 23:15
261F:→ rockmanalpha: 下一個資料片就拿掉 根本笑話 01/25 23:16
262F:推 Wind781013: 真‧達薩亞洛之戰 01/25 23:51
263F:推 alyh: 風暴一王前水滴+屍爆 直接跑魂... 01/26 01:00
264F:推 diefish5566: 而且這周屍爆痛就算了 還會有地震補刀 01/26 01:20
265F:→ henry1234562: 屍爆被強化過了 所以這週挺難的 01/26 01:51
266F:→ henry1234562: 原本不會死的層數變成會死 然後被地震補刀 01/26 01:51
267F:推 aegius1r: 製作s2的385 拆掉 潮汐核心跟驅質都會還回來 01/26 18:06
268F:→ aegius1r: 所以只要湊夠核心就可以搓全部385拿400製造圖了 01/26 18:06
269F:推 bruce2725: 新團本是不是很吃資源阿 rtx2060 開到3平常只有40-50 01/26 21:17
270F:→ bruce2725: 戰鬥中只剩20-30... 01/26 21:17
271F:推 asdxdew: 有聯盟的今天特使給400特質嗎? 裝等要多少? 01/27 12:08
272F:→ henry1234562: 只有385 01/27 12:41
273F:推 shinew: 這禮拜M+要打到幾層有保底阿? 01/27 13:29
274F:→ d95272372: 2以上都有吧 只是最高到M10給410 01/27 14:09
275F:推 henry1234562: M10 是上限 01/27 15:08
276F:→ yuusan: 裝等375 特使給370 裝等370 特使給385 黑人問號0.0 01/27 17:31
277F:→ mealoop: 8.1之前 特使特質裝等會看你的頭肩胸部位 01/27 19:55
278F:→ mealoop: 這規則應該還是沒改喇 01/27 19:55
279F:推 JamesChen: 神王之死怎麼沒法解 01/27 23:53
280F:→ JamesChen: BUG了 點了好幾次都停在酋長來 01/27 23:54
281F:→ henry1234562: 好像熱修八王血量了 現在打輸出比以前有餘裕 01/28 00:34
282F:→ henry1234562: 大工匠也不會斷線了 不過還是很強 P3猛的不行.. 01/28 00:35
283F:→ a84474666: 八王是說英雄還是普通阿,我翻英雄的wcl血量沒變 01/28 01:18
284F:→ henry1234562: 普通 01/28 01:21
285F:→ henry1234562: 嘛 也可能是錯覺.. 01/28 01:21
286F:→ cookieyue: 普通嗎? 01/28 20:17
287F:→ cookieyue: 剛剛凌晨普通8感覺好像有調整過 同批人打起來變簡單 01/29 05:21
288F:推 aegius1r: wago.io支援mdt惹 太神啦 01/29 08:29
289F:推 orz65535: 去年血紅鑽石跟垃圾一樣10G隨便丟 現在翻到1000一個了 01/29 12:24
290F:推 jiaxie: 哇!改8.1前,我在賣場有低價收了一些紅綠精良寶石 01/29 13:11
291F:推 orz65535: 主要是雖然是有改善紅綠使用率不高的問題 但明顯把庫存 01/29 13:35
292F:→ orz65535: 用完後就撐不起新增的產量了 導致價格爆漲 01/29 13:36
293F:→ orz65535: 一個415戒指需要的紅綠+眼睛 就需要爆掉12組風暴白銀 01/29 13:40
294F:推 orz65535: 一個礦50計也就要燒掉12萬 01/29 13:42
295F:→ meishan31: 1.29 職業平衡,又要改BIS了,下次維修以後上線 01/29 19:39
296F:→ OscarShih: 靠北了 風僧雪怒果然被砍33%, 去他的已經在下面了砍屁 01/29 22:24
297F:→ henry1234562: 就1.5%變1% 01/29 22:40
298F:推 lnceric008: 開推m王囉 01/29 23:05
299F:→ OscarShih: method的台好像要打H? 01/29 23:08
300F:→ OscarShih: 場地已經好了 背後很大的紅牛 01/29 23:08
301F:推 lnceric008: WG一把幹掉M1 又可以便當囉 01/29 23:17
302F:→ OscarShih: sco打了一個30個都是皮甲的團 01/29 23:31
303F:推 lnceric008: WG三把過M2 01/29 23:37
304F:推 b2305911: BDG 3/9 01/30 00:21
305F:→ henry1234562: 看來M玉火大師還是把武僧幹掉就等於贏了 01/30 02:12
306F:→ henry1234562: 四王本質上沒啥區別 就是傷害跟小怪擊殺要求更快 01/30 03:16
307F:→ henry1234562: 然後用保護把金幣分攤解決掉就沒事了.. 01/30 03:16
308F:→ d95272372: WG的5王換坦好快 01/30 03:24
309F:→ d95272372: LIMIT 5/9 .... 01/30 03:27
310F:→ cookieyue: .........好像有點快.. 01/30 04:35
311F:推 YumingHuang: BL 開黑海岸 .. 400 裝備箱 @@ 01/30 15:42
312F:→ Golbeza: 都8.1了還有人在BL == 01/30 15:56
313F:推 Wind781013: 我尊重多元成家。 01/30 16:13
314F:推 YumingHuang: 拍謝,打太快,部落 = =" 01/30 16:15
315F:→ jiaxie: 樓上別怕!置底閒聊 01/30 17:00
316F:推 YumingHuang: 400 要平民化了 = o = 01/30 18:26
317F:推 Wind781013: 看好多大公會都是用刺殺賊,可惡想學 01/30 20:52
318F:推 secundus: 部落方有30%加成, 但是沒力挽狂瀾可接 01/31 04:43
319F:推 HeyYoYo: 有好接啊 找半血接 01/31 04:50
320F:推 secundus: O_o 那我找錯人了, 抱歉發了錯誤訊息 == 01/31 08:48
321F:→ secundus: 上周開聯盟的是在PVP那區接, 所以早上跑去部落PVP那 01/31 08:52
322F:→ secundus: 沒看到以為沒任務, 沒想到是找迦羅娜, 歹勢啦 01/31 08:53
323F:→ henry1234562: 聯盟是在船上接的阿.. 01/31 09:03
324F:推 orz65535: 船上接 PVP區還 01/31 10:38
325F:推 secundus: 這樣r...我整組記歪了 -.- 01/31 12:17
326F:推 sunchen0201: 隨團一區亂櫓就過了,是大家裝等都太高了嗎? =.= 01/31 14:23
327F:→ cookieyue: 剛開正常都是滿裝去打打吧 01/31 14:43
328F:推 jiaxie: 驚!軍團剝皮滿了,開始加德拉諾剝皮點數! 01/31 14:50
329F:→ jiaxie: 說錯,庫爾提拉斯剝皮150滿,在斯陀剝皮加的是德拉諾剝皮 01/31 14:51
330F:→ jiaxie: 西北邊托爾托海草任務剝皮加的是德拉諾 01/31 14:54



like 熱門文章




like.gif 您可能會有興趣的文章
icon.png[食記] 台中西屯路二段 三姊妹雲緬小吃
icon.png[眼殘] 瓶蓋我猜不透你
icon.png[分享] 楚門 Trumon G-1852S 簡易開箱心得
icon.png[公告] 置底醫生的那篇推文
icon.pngRe: [洽特] [柚木N’]ずっと好きだった 第六話
icon.pngRe: [閒聊] 月曜日のたわわ
icon.png[創作] 自製孵蛋器
icon.png[問題] 需要縮鼻翼嗎
icon.png[美圖] 160407 Nana @SURE 四月號雜誌(2016)B
icon.png[心得] 紅米Note3特製版刷機
icon.png[情報] 公家機關單辦門號案
icon.png[閒聊] 同人漫畫分享-西野 ININ聯盟2即將上硬
icon.png[心得] 蒼の海賊龍 地獄 執行者16PT
icon.png[問題] 這是烙印嗎?LG G5 speed
icon.png[資訊] ivideo wifi FB粉絲優惠序號
icon.png[問題] 41901 的耳機有比 E9 原廠耳機 好嗎?
icon.png[閒聊] 尋訪東京吉原泡泡浴心得
icon.png[討論] 沒有隊長X巴奇以外的選擇了嗎?
icon.png[情報] 顏值高:小米Note2綠色/紫色版亮相CES20
icon.pngRe: [討論] 中華大4G金省/金讚/大七喜購機價格整理
icon.png[問題] 請問鄭守柔醫師還有在看診嗎?
icon.png廚房報價單
icon.png[閒聊] 真的很喜歡這位姊姊>////<
icon.png[討論] 大家小時候暗戀的卡通男主角?
icon.pngRe: [難過] 林奕含好像走了
icon.pngRe: [閒聊] 女生會討厭胸奴人嗎?
icon.png[正妹] 清水あいり  (奶大圖多)
icon.png[正妹] 大胃王正妹 千千
icon.png[爆卦] 小英競選總部開幕 整條街擠爆看不到盡頭
icon.png[LIVE] 奶酪陷阱 EP14
icon.png[大哭] 這樣穿才是流行
icon.pngRe: [16冬] 為這美好的世界獻上祝福! 02
icon.png[情報]原價屋!EZLINK Panzer V 240GB只要1680元
icon.png[閒聊] 腦袋在晃動到底是什麼感覺?
icon.png[情報] 石頭微博更新
icon.png[神人] ULT - 100 第四位女優
icon.png[新聞] 《閃亂神樂PBS》釋新角 禁斷角色「小百
icon.pngRe: [閒聊] 精靈幻想記(有雷)
icon.png[抱怨] 淘寶增利物流也稱重的太不老實了
icon.png[轉錄] 7.0上線後你該做的事情及介紹 不完全指北

請輸入看板名稱,例如:iOS站內搜尋

TOP